Time,TemperatureF,DewpointF,PressureIn,WindDirection,WindDirectionDegrees,WindSpeedMPH,WindSpeedGustMPH,Humidity,HourlyPrecipIn,Conditions,Clouds,dailyrainin,SoftwareType,DateUTC
2013-03-16 00:01:00,54.3,48.0,30.01,WSW,249,16.0,-999.0,80,-99.99,,,0.00,weatherlink.com 1.10,2013-03-16 04:01:00,
2013-03-16 00:16:00,54.5,48.0,30.01,SW,229,21.0,-999.0,80,-99.99,,,0.00,weatherlink.com 1.10,2013-03-16 04:16:00,
2013-03-16 00:31:00,54.5,48.0,30.00,SW,236,21.0,-999.0,80,-99.99,,,0.00,weatherlink.com 1.10,2013-03-16 04:31:00,
2013-03-16 00:46:00,54.5,49.0,30.00,WSW,239,19.0,-999.0,81,-99.99,,,0.00,weatherlink.com 1.10,2013-03-16 04:46:00,
2013-03-16 01:01:00,54.4,49.0,30.00,SW,235,18.0,-999.0,82,-99.99,,,0.00,weatherlink.com 1.10,2013-03-16 05:01:00,
2013-03-16 01:17:00,54.5,49.0,29.99,WSW,241,20.0,-999.0,82,-99.99,,,0.00,weatherlink.com 1.10,2013-03-16 05:17:00,
2013-03-16 01:31:00,54.5,49.0,29.99,WSW,247,24.0,-999.0,82,-99.99,,,0.00,weatherlink.com 1.10,2013-03-16 05:31:00,
2013-03-16 01:46:00,54.7,49.0,29.98,WSW,246,23.0,-999.0,82,-99.99,,,0.00,weatherlink.com 1.10,2013-03-16 05:46:00,
2013-03-16 02:01:00,54.7,49.0,29.98,WSW,240,20.0,-999.0,82,-99.99,,,0.00,weatherlink.com 1.10,2013-03-16 06:01:00,
2013-03-16 02:17:00,54.8,49.0,29.97,SW,236,19.0,-999.0,82,-99.99,,,0.00,weatherlink.com 1.10,2013-03-16 06:17:00,
2013-03-16 02:31:00,54.8,49.0,29.97,WSW,240,17.0,-999.0,82,-99.99,,,0.00,weatherlink.com 1.10,2013-03-16 06:31:00,
2013-03-16 02:46:00,55.0,50.0,29.96,WSW,242,21.0,-999.0,82,-99.99,,,0.00,weatherlink.com 1.10,2013-03-16 06:46:00,
2013-03-16 03:01:00,55.1,50.0,29.96,WSW,240,22.0,-999.0,82,-99.99,,,0.00,weatherlink.com 1.10,2013-03-16 07:01:00,
2013-03-16 03:17:00,55.3,50.0,29.95,WSW,245,24.0,-999.0,82,-99.99,,,0.00,weatherlink.com 1.10,2013-03-16 07:17:00,
2013-03-16 03:32:00,55.3,50.0,29.94,WSW,242,19.0,-999.0,83,-99.99,,,0.00,weatherlink.com 1.10,2013-03-16 07:32:00,
2013-03-16 03:47:00,55.2,51.0,29.94,SW,232,23.0,-999.0,84,-99.99,,,0.00,weatherlink.com 1.10,2013-03-16 07:47:00,
2013-03-16 04:02:00,55.2,51.0,29.93,SW,234,20.0,-999.0,84,-99.99,,,0.00,weatherlink.com 1.10,2013-03-16 08:02:00,
2013-03-16 04:17:00,55.2,51.0,29.93,SW,236,21.0,-999.0,85,-99.99,,,0.00,weatherlink.com 1.10,2013-03-16 08:17:00,
2013-03-16 04:32:00,55.1,51.0,29.93,WSW,244,19.0,-999.0,86,-99.99,,,0.00,weatherlink.com 1.10,2013-03-16 08:32:00,
2013-03-16 04:47:00,55.0,51.0,29.93,SW,233,13.0,-999.0,86,-99.99,,,0.00,weatherlink.com 1.10,2013-03-16 08:47:00,
2013-03-16 05:02:00,54.8,51.0,29.92,WSW,249,17.0,-999.0,87,-99.99,,,0.00,weatherlink.com 1.10,2013-03-16 09:02:00,
2013-03-16 05:17:00,54.6,51.0,29.93,WSW,238,12.0,-999.0,87,-99.99,,,0.00,weatherlink.com 1.10,2013-03-16 09:17:00,
2013-03-16 05:32:00,54.5,51.0,29.93,WSW,244,13.0,-999.0,88,-99.99,,,0.00,weatherlink.com 1.10,2013-03-16 09:32:00,
2013-03-16 05:47:00,54.5,51.0,29.93,WSW,246,12.0,-999.0,88,-99.99,,,0.00,weatherlink.com 1.10,2013-03-16 09:47:00,
2013-03-16 06:02:00,54.5,51.0,29.93,WSW,247,16.0,-999.0,88,-99.99,,,0.00,weatherlink.com 1.10,2013-03-16 10:02:00,
2013-03-16 06:17:00,54.4,51.0,29.93,WSW,243,13.0,-999.0,88,-99.99,,,0.00,weatherlink.com 1.10,2013-03-16 10:17:00,
2013-03-16 06:32:00,54.3,51.0,29.93,WSW,244,13.0,-999.0,88,-99.99,,,0.00,weatherlink.com 1.10,2013-03-16 10:32:00,
2013-03-16 06:47:00,54.4,51.0,29.93,WSW,252,14.0,-999.0,88,-99.99,,,0.00,weatherlink.com 1.10,2013-03-16 10:47:00,
2013-03-16 07:02:00,54.3,51.0,29.93,WSW,256,11.0,-999.0,88,-99.99,,,0.00,weatherlink.com 1.10,2013-03-16 11:02:00,
2013-03-16 07:17:00,54.3,51.0,29.93,WSW,248,13.0,-999.0,88,-99.99,,,0.00,weatherlink.com 1.10,2013-03-16 11:17:00,
2013-03-16 07:32:00,54.4,51.0,29.93,WSW,247,8.0,-999.0,88,-99.99,,,0.00,weatherlink.com 1.10,2013-03-16 11:32:00,
2013-03-16 07:47:00,54.4,51.0,29.93,WSW,244,12.0,-999.0,88,-99.99,,,0.00,weatherlink.com 1.10,2013-03-16 11:47:00,
2013-03-16 08:02:00,54.5,51.0,29.94,WSW,246,12.0,-999.0,89,-99.99,,,0.00,weatherlink.com 1.10,2013-03-16 12:02:00,
2013-03-16 08:17:00,54.5,51.0,29.94,WSW,238,9.0,-999.0,89,-99.99,,,0.00,weatherlink.com 1.10,2013-03-16 12:17:00,
2013-03-16 08:32:00,54.6,52.0,29.93,WSW,244,10.0,-999.0,89,-99.99,,,0.00,weatherlink.com 1.10,2013-03-16 12:32:00,
2013-03-16 08:47:00,54.9,52.0,29.93,WSW,240,10.0,-999.0,89,-99.99,,,0.00,weatherlink.com 1.10,2013-03-16 12:47:00,
2013-03-16 09:02:00,55.1,52.0,29.93,WSW,247,10.0,-999.0,88,-99.99,,,0.00,weatherlink.com 1.10,2013-03-16 13:02:00,
2013-03-16 09:17:00,55.1,52.0,29.94,SW,236,11.0,-999.0,88,-99.99,,,0.00,weatherlink.com 1.10,2013-03-16 13:17:00,
2013-03-16 09:32:00,55.2,52.0,29.94,WSW,240,12.0,-999.0,88,-99.99,,,0.00,weatherlink.com 1.10,2013-03-16 13:32:00,
2013-03-16 09:47:00,55.4,52.0,29.94,WSW,242,12.0,-999.0,87,-99.99,,,0.00,weatherlink.com 1.10,2013-03-16 13:47:00,
2013-03-16 10:02:00,55.5,52.0,29.94,WSW,242,11.0,-999.0,87,-99.99,,,0.00,weatherlink.com 1.10,2013-03-16 14:02:00,
2013-03-16 10:17:00,56.3,53.0,29.93,WSW,247,11.0,-999.0,87,-99.99,,,0.00,weatherlink.com 1.10,2013-03-16 14:17:00,
2013-03-16 10:32:00,57.1,53.0,29.92,WSW,246,11.0,-999.0,85,-99.99,,,0.00,weatherlink.com 1.10,2013-03-16 14:32:00,
2013-03-16 10:47:00,57.6,53.0,29.92,WSW,247,13.0,-999.0,83,-99.99,,,0.00,weatherlink.com 1.10,2013-03-16 14:47:00,
2013-03-16 11:02:00,57.1,52.0,29.91,WSW,245,11.0,-999.0,83,-99.99,,,0.00,weatherlink.com 1.10,2013-03-16 15:02:00,
2013-03-16 11:17:00,57.0,52.0,29.91,WSW,238,14.0,-999.0,84,-99.99,,,0.00,weatherlink.com 1.10,2013-03-16 15:17:00,
2013-03-16 11:32:00,57.7,53.0,29.91,SW,224,12.0,-999.0,83,-99.99,,,0.00,weatherlink.com 1.10,2013-03-16 15:32:00,
2013-03-16 11:47:00,58.7,53.0,29.91,SW,236,8.0,-999.0,82,-99.99,,,0.00,weatherlink.com 1.10,2013-03-16 15:47:00,
2013-03-16 12:02:00,58.2,53.0,29.90,SW,225,9.0,-999.0,82,-99.99,,,0.00,weatherlink.com 1.10,2013-03-16 16:02:00,
2013-03-16 12:17:00,59.4,53.0,29.89,SW,218,7.0,-999.0,80,-99.99,,,0.00,weatherlink.com 1.10,2013-03-16 16:17:00,
2013-03-16 12:32:00,59.5,53.0,29.89,SW,223,6.0,-999.0,79,-99.99,,,0.00,weatherlink.com 1.10,2013-03-16 16:32:00,
2013-03-16 12:47:00,59.5,53.0,29.88,SW,215,11.0,-999.0,80,-99.99,,,0.00,weatherlink.com 1.10,2013-03-16 16:47:00,
2013-03-16 13:02:00,59.4,54.0,29.88,SW,234,9.0,-999.0,81,-99.99,,,0.00,weatherlink.com 1.10,2013-03-16 17:02:00,
2013-03-16 13:17:00,59.2,53.0,29.87,SW,219,13.0,-999.0,81,-99.99,,,0.00,weatherlink.com 1.10,2013-03-16 17:17:00,
2013-03-16 13:32:00,58.8,53.0,29.87,SW,215,11.0,-999.0,82,-99.99,,,0.00,weatherlink.com 1.10,2013-03-16 17:32:00,
2013-03-16 13:47:00,59.0,53.0,29.86,SSW,211,17.0,-999.0,81,-99.99,,,0.00,weatherlink.com 1.10,2013-03-16 17:47:00,
2013-03-16 14:02:00,59.1,53.0,29.85,SW,221,16.0,-999.0,81,-99.99,,,0.00,weatherlink.com 1.10,2013-03-16 18:02:00,
2013-03-16 14:18:00,59.1,53.0,29.85,WSW,239,12.0,-999.0,81,-99.99,,,0.00,weatherlink.com 1.10,2013-03-16 18:18:00,
2013-03-16 14:33:00,59.3,54.0,29.83,SW,217,17.0,-999.0,81,-99.99,,,0.00,weatherlink.com 1.10,2013-03-16 18:33:00,
2013-03-16 14:48:00,59.4,54.0,29.83,SW,227,16.0,-999.0,81,-99.99,,,0.00,weatherlink.com 1.10,2013-03-16 18:48:00,
2013-03-16 15:03:00,59.7,54.0,29.82,SW,226,15.0,-999.0,80,-99.99,,,0.00,weatherlink.com 1.10,2013-03-16 19:03:00,
2013-03-16 15:18:00,59.6,53.0,29.82,WSW,240,16.0,-999.0,80,-99.99,,,0.00,weatherlink.com 1.10,2013-03-16 19:18:00,
2013-03-16 15:33:00,59.7,54.0,29.81,SW,234,15.0,-999.0,80,-99.99,,,0.00,weatherlink.com 1.10,2013-03-16 19:33:00,
2013-03-16 15:48:00,59.5,53.0,29.81,SW,235,14.0,-999.0,80,-99.99,,,0.00,weatherlink.com 1.10,2013-03-16 19:48:00,
2013-03-16 16:03:00,59.1,53.0,29.81,West,260,20.0,-999.0,80,-99.99,,,0.00,weatherlink.com 1.10,2013-03-16 20:03:00,
2013-03-16 16:18:00,59.1,53.0,29.80,WSW,242,18.0,-999.0,81,-99.99,,,0.00,weatherlink.com 1.10,2013-03-16 20:18:00,
2013-03-16 16:33:00,59.3,53.0,29.80,SW,230,16.0,-999.0,80,-99.99,,,0.00,weatherlink.com 1.10,2013-03-16 20:33:00,
2013-03-16 16:48:00,58.7,53.0,29.80,SSW,202,20.0,-999.0,81,-99.99,,,0.00,weatherlink.com 1.10,2013-03-16 20:48:00,
2013-03-16 17:03:00,58.5,53.0,29.79,SW,227,19.0,-999.0,82,-99.99,,,0.00,weatherlink.com 1.10,2013-03-16 21:03:00,
2013-03-16 17:18:00,58.8,53.0,29.78,SW,222,20.0,-999.0,81,-99.99,,,0.00,weatherlink.com 1.10,2013-03-16 21:18:00,
2013-03-16 17:33:00,58.9,53.0,29.79,SW,227,22.0,-999.0,81,-99.99,,,0.00,weatherlink.com 1.10,2013-03-16 21:33:00,
2013-03-16 17:48:00,58.9,53.0,29.78,SW,232,24.0,-999.0,81,-99.99,,,0.00,weatherlink.com 1.10,2013-03-16 21:48:00,
2013-03-16 18:03:00,58.4,53.0,29.78,SW,224,32.0,-999.0,82,-99.99,,,0.00,weatherlink.com 1.10,2013-03-16 22:03:00,
2013-03-16 18:18:00,58.2,53.0,29.78,SW,232,31.0,-999.0,82,-99.99,,,0.00,weatherlink.com 1.10,2013-03-16 22:18:00,
2013-03-16 18:33:00,58.0,53.0,29.78,SW,234,24.0,-999.0,83,-99.99,,,0.00,weatherlink.com 1.10,2013-03-16 22:33:00,
2013-03-16 18:48:00,57.9,53.0,29.78,WSW,238,24.0,-999.0,83,-99.99,,,0.00,weatherlink.com 1.10,2013-03-16 22:48:00,
2013-03-16 19:03:00,57.7,53.0,29.79,WSW,244,31.0,-999.0,83,-99.99,,,0.00,weatherlink.com 1.10,2013-03-16 23:03:00,
2013-03-16 19:18:00,57.6,53.0,29.79,WSW,239,24.0,-999.0,84,-99.99,,,0.00,weatherlink.com 1.10,2013-03-16 23:18:00,
2013-03-16 19:33:00,57.7,53.0,29.79,WSW,242,26.0,-999.0,84,-99.99,,,0.00,weatherlink.com 1.10,2013-03-16 23:33:00,
2013-03-16 19:48:00,57.7,53.0,29.80,SW,225,25.0,-999.0,83,-99.99,,,0.00,weatherlink.com 1.10,2013-03-16 23:48:00,
2013-03-16 20:03:00,57.6,53.0,29.81,SW,233,24.0,-999.0,84,-99.99,,,0.00,weatherlink.com 1.10,2013-03-17 00:03:00,
2013-03-16 20:18:00,57.5,53.0,29.81,SW,236,25.0,-999.0,84,-99.99,,,0.00,weatherlink.com 1.10,2013-03-17 00:18:00,
2013-03-16 20:33:00,57.6,53.0,29.82,SW,236,23.0,-999.0,84,-99.99,,,0.00,weatherlink.com 1.10,2013-03-17 00:33:00,
2013-03-16 20:48:00,57.5,53.0,29.83,WSW,250,23.0,-999.0,84,-99.99,,,0.00,weatherlink.com 1.10,2013-03-17 00:48:00,
2013-03-16 21:03:00,57.5,53.0,29.84,WSW,244,18.0,-999.0,84,-99.99,,,0.00,weatherlink.com 1.10,2013-03-17 01:03:00,
2013-03-16 21:18:00,57.3,53.0,29.84,SW,233,18.0,-999.0,84,-99.99,,,0.00,weatherlink.com 1.10,2013-03-17 01:18:00,
2013-03-16 21:33:00,57.2,53.0,29.85,WSW,237,19.0,-999.0,85,-99.99,,,0.00,weatherlink.com 1.10,2013-03-17 01:33:00,
2013-03-16 21:48:00,57.0,53.0,29.86,SW,229,15.0,-999.0,85,-99.99,,,0.00,weatherlink.com 1.10,2013-03-17 01:48:00,
2013-03-16 22:03:00,56.8,53.0,29.86,SW,234,17.0,-999.0,86,-99.99,,,0.00,weatherlink.com 1.10,2013-03-17 02:03:00,
2013-03-16 22:18:00,56.7,53.0,29.87,WSW,237,18.0,-999.0,86,-99.99,,,0.00,weatherlink.com 1.10,2013-03-17 02:18:00,
2013-03-16 22:33:00,56.8,54.0,29.88,SW,234,13.0,-999.0,89,-99.99,,,0.00,weatherlink.com 1.10,2013-03-17 02:33:00,
2013-03-16 22:48:00,56.6,53.0,29.89,WSW,240,12.0,-999.0,87,-99.99,,,0.00,weatherlink.com 1.10,2013-03-17 02:48:00,
2013-03-16 23:03:00,56.4,53.0,29.89,WSW,245,13.0,-999.0,88,-99.99,,,0.00,weatherlink.com 1.10,2013-03-17 03:03:00,
2013-03-16 23:18:00,56.1,53.0,29.89,WSW,257,10.0,-999.0,88,-99.99,,,0.00,weatherlink.com 1.10,2013-03-17 03:18:00,
2013-03-16 23:33:00,56.0,53.0,29.90,WSW,248,11.0,-999.0,89,-99.99,,,0.00,weatherlink.com 1.10,2013-03-17 03:33:00,
2013-03-16 23:48:00,56.0,53.0,29.90,WSW,243,13.0,-999.0,89,-99.99,,,0.00,weatherlink.com 1.10,2013-03-17 03:48:00,